Wind_Speed
31 31 32 33 33 34 36 36 37 36 36 36 38 38 38 38 38 38 39 39 39 40 40 40 40 40 40 39 39 39 38 38 38 38 38 38 38 38 38 38 38 39 39 39
30 31 32 33 33 34 35 36 37 38 38 36 37 38 38 39 38 38 38 38 39 40 40 39 40 40 40 40 40 39 39 39 39 39 38 38 38 38 39 39 38 38 38 38
30 30 32 32 31 32 34 35 36 38 38 37 37 37 37 37 37 37 38 39 40 40 40 40 39 39 40 40 40 39 39 39 39 39 39 38 38 38 38 38 38 38 38 38
31 30 30 29 30 31 32 33 34 35 36 36 37 36 36 37 37 37 38 38 39 39 39 38 38 38 39 39 39 39 39 39 39 38 38 38 38 37 37 37 37 37 37 37
31 30 29 27 27 27 29 30 32 33 34 35 35 35 35 36 36 37 37 37 37 38 38 38 38 38 38 38 38 38 38 38 38 38 38 37 37 36 36 36 36 36 36 35
30 30 29 27 26 27 28 29 30 32 33 35 36 36 36 36 36 36 37 37 38 38 38 38 38 38 38 38 38 38 38 37 37 37 37 37 36 35 35 35 35 35 34 34
29 30 29 26 26 26 27 28 29 30 32 33 35 35 35 36 36 35 35 35 36 37 37 37 37 37 37 38 38 38 37 37 37 36 36 36 36 35 35 34 34 34 33 33
26 27 25 24 24 25 26 26 27 28 30 31 31 32 33 34 34 33 33 33 34 35 35 36 36 37 36 37 37 37 37 37 37 36 36 35 35 35 34 34 34 33 33 33
25 25 24 25 26 26 27 28 27 28 28 29 30 31 31 33 34 34 34 33 34 34 33 33 34 35 35 34 35 36 36 36 36 36 35 34 34 33 33 32 33 33 33 33
24 24 24 25 26 27 28 29 29 29 29 29 31 32 32 32 33 34 34 33 33 33 33 33 33 33 34 33 33 33 34 34 34 34 34 33 33 33 33 33 33 32 32 32
25 25 25 25 26 26 27 27 28 29 29 30 32 32 32 32 32 33 33 33 33 32 31 31 31 32 32 32 32 31 31 31 32 32 31 32 31 32 32 32 32 31 31 31
25 26 26 26 26 27 27 27 27 29 30 30 31 31 31 31 31 31 31 31 31 31 30 29 29 30 30 30 31 31 30 29 29 29 29 29 29 29 29 29 29 29 29 29
26 26 27 27 27 28 28 28 28 28 28 29 29 29 29 30 30 30 30 30 29 29 29 29 29 29 29 29 29 31 31 30 29 28 28 27 27 26 26 26 26 26 27 28
26 26 27 27 27 28 28 28 28 27 27 27 27 27 27 27 28 28 28 29 28 28 27 27 28 28 29 28 28 30 31 30 28 28 27 27 26 25 24 24 25 25 26 27
26 26 26 26 26 26 27 26 26 26 26 25 24 25 25 25 26 27 26 26 27 27 26 26 26 27 27 27 27 27 28 28 28 27 27 27 26 25 25 24 24 24 25 25
23 23 23 23 24 24 25 24 24 23 23 23 23 23 23 23 23 25 25 25 25 25 25 25 25 26 26 26 26 26 26 27 27 26 26 26 25 25 24 24 24 24 25 25
21 21 21 22 22 23 23 23 22 22 22 22 22 21 21 21 21 22 23 24 24 24 24 24 24 24 24 25 26 26 26 26 26 25 24 24 25 25 25 25 25 25 25 26
21 21 21 21 21 22 21 21 21 21 20 20 20 20 20 20 20 21 21 22 22 23 24 24 24 23 23 23 24 25 26 27 26 26 26 26 26 26 26 26 26 26 27 27
20 20 21 21 20 20 19 19 19 19 19 19 19 19 20 20 20 20 21 21 21 22 23 23 23 23 23 24 24 25 25 26 27 26 26 26 26 26 26 26 26 26 27 27
19 19 19 19 19 19 19 18 18 17 17 18 18 18 18 19 19 20 20 20 20 21 21 22 22 22 22 23 23 23 24 26 26 27 26 26 26 26 27 27 27 27 28 28
19 19 19 19 19 19 18 18 17 17 16 16 16 16 17 17 18 18 18 19 19 20 20 21 21 22 22 22 23 23 24 25 25 26 26 26 26 27 27 27 27 27 28 28
20 19 19 19 19 18 18 18 17 16 16 15 15 15 15 16 17 17 17 17 18 19 20 21 22 22 22 22 23 23 24 24 25 25 26 26 27 27 27 27 27 27 27 27
20 19 19 19 19 18 18 18 18 16 16 15 15 15 15 15 16 17 18 18 18 18 19 20 21 22 23 23 23 24 24 25 25 26 26 27 27 27 27 27 27 28 28 28
20 19 19 19 19 18 18 18 17 17 16 16 16 16 15 15 16 16 17 17 18 19 19 19 20 21 22 23 24 24 24 25 26 26 26 27 26 27 27 27 28 28 28 28
19 20 20 20 19 18 18 17 17 16 16 16 16 16 16 16 16 16 17 17 18 19 19 19 20 21 22 23 24 24 25 25 26 27 27 26 27 27 27 27 28 28 28 29
20 20 20 19 19 18 17 17 16 16 16 16 16 16 16 16 16 16 17 17 18 18 18 19 19 20 20 21 22 23 24 25 26 26 27 27 27 27 28 28 28 29 29 30
20 20 19 19 19 18 17 16 16 16 16 16 16 16 16 16 17 17 17 18 18 18 19 19 19 20 21 21 22 23 24 24 25 26 26 26 26 27 27 28 28 28 29 29
Wind_Direction
281 277 273 270 266 262 260 259 258 256 255 254 253 253 254 256 257 257 255 254 254 255 255 256 256 256 256 257 259 259 259 259 259 259 260 260 261 262 262 262 262 263 263 263
282 279 275 271 268 266 263 261 259 257 255 255 255 255 255 256 257 256 255 254 254 256 256 256 256 256 256 257 257 257 258 259 259 259 259 259 261 262 262 262 262 262 263 263
283 280 277 274 273 268 266 263 262 259 257 255 256 255 256 255 256 257 256 255 255 255 256 255 255 255 255 256 256 256 257 258 259 259 259 260 261 262 261 262 261 261 261 262
283 280 277 278 274 270 266 264 263 261 259 257 257 254 255 255 256 256 257 256 256 256 257 257 256 255 255 255 256 256 256 257 259 259 260 261 261 261 261 261 261 261 261 260
284 282 280 277 276 272 266 264 264 263 260 260 259 257 256 256 256 256 257 256 256 257 257 257 257 255 255 255 255 256 256 257 258 259 260 261 261 260 261 261 261 261 260 260
282 281 281 278 275 272 269 267 265 264 262 261 260 259 259 259 258 258 259 258 257 257 257 258 257 256 256 256 256 257 257 257 259 259 259 259 260 261 261 261 261 260 260 261
279 278 278 278 276 273 270 269 267 265 264 264 263 263 261 260 259 260 261 261 261 259 258 257 257 256 255 256 257 257 257 258 258 258 258 259 260 261 261 261 260 259 259 259
280 278 277 277 274 272 272 271 269 267 266 266 264 262 260 259 259 259 261 262 263 262 261 259 257 256 256 255 255 255 255 256 257 257 257 258 260 261 261 260 259 258 258 259
281 281 280 277 276 275 273 272 271 269 268 267 265 264 263 260 259 259 260 262 263 263 261 259 259 257 254 255 255 254 253 254 255 256 256 257 258 258 259 259 259 257 257 257
282 280 280 279 278 278 277 275 274 273 270 267 266 265 265 262 260 260 261 262 262 262 262 261 259 257 256 254 253 252 252 253 254 256 256 256 256 257 258 257 257 258 258 257
283 281 279 279 279 280 281 279 275 273 271 269 267 266 265 263 262 261 261 261 261 262 262 261 259 256 255 253 252 252 254 254 255 256 256 255 256 257 258 257 257 257 257 258
285 283 280 279 279 280 280 279 277 275 273 272 270 268 266 264 262 261 260 260 261 260 259 259 258 256 253 252 251 251 251 253 254 255 256 257 258 258 257 256 255 255 256 258
288 286 285 283 281 280 280 281 280 278 277 273 270 269 268 264 262 261 260 260 260 258 258 257 256 254 252 251 251 250 249 250 252 254 255 255 256 256 256 255 255 255 256 258
288 288 287 286 284 282 282 282 282 281 279 276 272 268 266 263 260 259 259 258 257 257 257 257 255 253 251 250 250 249 248 248 250 251 252 252 253 254 254 253 253 255 257 258
289 289 289 287 287 286 285 284 282 281 278 276 273 268 263 260 258 257 255 255 255 256 256 255 252 251 249 249 248 247 246 246 247 249 250 250 250 251 252 253 253 255 258 260
291 292 292 292 292 290 287 285 282 280 276 273 271 267 262 260 257 255 254 255 254 253 253 252 250 249 248 248 247 246 245 244 245 247 248 249 250 250 251 252 254 256 257 260
293 293 293 293 293 292 289 286 282 280 275 272 270 267 261 258 258 256 255 255 254 253 252 251 250 249 248 247 245 243 242 242 242 244 246 248 250 251 251 252 255 256 258 260
297 296 296 295 294 294 293 290 286 281 277 273 269 265 261 259 259 257 256 255 255 255 252 250 249 248 247 244 243 242 241 242 243 245 248 249 251 251 252 254 256 256 257 260
301 300 300 299 298 296 294 292 288 282 278 276 272 267 263 261 260 259 257 256 256 254 251 247 245 245 244 244 244 243 243 243 244 247 248 250 251 252 253 255 256 257 258 260
305 304 303 304 303 300 297 295 291 286 282 279 275 270 266 264 262 259 256 256 254 251 248 246 245 244 244 245 246 245 245 245 247 248 249 250 251 252 253 256 258 258 259 261
306 305 304 304 305 302 298 297 296 292 286 283 278 273 269 266 264 262 259 256 252 249 247 245 245 245 246 248 249 248 248 247 248 249 250 251 251 252 254 255 257 258 260 262
308 307 306 304 305 304 301 298 297 293 287 283 279 276 272 269 266 263 261 259 255 252 249 248 248 247 248 250 251 250 250 249 249 249 250 252 253 253 254 256 257 259 261 263
309 309 309 306 305 303 301 298 296 292 286 281 279 277 274 271 268 264 263 261 259 258 256 254 253 252 252 253 252 252 252 251 250 250 251 252 253 254 255 256 258 260 262 264
309 310 311 310 308 305 302 301 298 292 286 281 278 276 275 274 271 267 265 263 262 261 260 259 258 257 256 255 255 254 253 252 251 251 251 252 254 255 257 258 260 262 263 265
308 309 309 310 309 307 304 302 299 294 288 284 281 277 277 275 273 271 268 267 266 265 263 262 261 260 259 258 256 255 254 253 252 251 252 253 255 257 259 260 261 262 264 266
307 308 309 310 310 308 304 301 299 294 290 287 283 281 279 277 273 272 270 269 267 265 263 263 264 264 263 260 257 256 256 255 254 253 254 255 257 259 260 261 262 264 266 267
306 306 308 311 311 309 306 302 298 294 290 286 284 282 280 278 275 274 273 271 269 267 266 266 267 267 265 262 260 259 258 257 255 255 255 257 259 260 261 262 263 265 266 268
Height
5565 5563 5562 5562 5562 5562 5562 5562 5562 5564 5566 5567 5568 5569 5570 5571 5572 5573 5574 5575 5577 5579 5581 5583 5585 5587 5589 5590 5592 5593 5594 5596 5597 5598 5598 5599 5600 5601 5602 5602 5603 5604 5604 5605
5556 5554 5552 5552 5552 5552 5551 5551 5551 5552 5554 5555 5557 5558 5559 5560 5561 5562 5562 5564 5565 5567 5569 5571 5573 5575 5577 5579 5580 5581 5583 5584 5585 5586 5587 5588 5589 5590 5590 5591 5591 5592 5593 5594
5546 5545 5542 5542 5543 5541 5541 5541 5541 5541 5544 5544 5545 5547 5548 5549 5549 5550 5551 5552 5554 5556 5558 5560 5562 5564 5566 5567 5569 5570 5572 5573 5574 5575 5576 5576 5577 5578 5579 5580 5580 5581 5582 5582
5536 5535 5533 5536 5532 5531 5530 5530 5530 5530 5531 5532 5534 5535 5536 5537 5538 5539 5540 5541 5542 5544 5546 5548 5550 5552 5554 5556 5557 5559 5560 5561 5562 5563 5564 5565 5566 5567 5567 5568 5569 5570 5570 5571
5526 5524 5524 5524 5522 5521 5520 5520 5520 5520 5521 5522 5522 5524 5525 5526 5527 5528 5529 5530 5531 5533 5535 5537 5539 5541 5543 5544 5546 5548 5549 5550 5551 5552 5553 5554 5555 5556 5556 5557 5558 5559 5559 5560
5517 5515 5514 5516 5514 5512 5512 5511 5511 5510 5511 5511 5512 5514 5516 5516 5516 5517 5518 5519 5520 5522 5524 5526 5528 5529 5531 5533 5535 5537 5538 5539 5540 5541 5542 5543 5544 5545 5545 5546 5547 5548 5549 5550
5508 5506 5505 5505 5504 5504 5504 5503 5501 5500 5500 5501 5501 5502 5504 5505 5506 5507 5508 5509 5510 5511 5513 5515 5516 5518 5520 5522 5524 5525 5527 5528 5530 5531 5532 5532 5533 5534 5535 5536 5537 5538 5539 5540
5500 5498 5500 5497 5495 5495 5494 5492 5491 5491 5491 5491 5491 5492 5493 5494 5495 5496 5497 5498 5499 5500 5502 5504 5505 5507 5509 5511 5513 5514 5516 5517 5519 5520 5521 5522 5523 5524 5524 5526 5527 5528 5529 5530
5492 5493 5490 5488 5487 5485 5484 5483 5483 5482 5482 5481 5482 5482 5483 5484 5485 5487 5488 5489 5489 5490 5491 5493 5494 5496 5498 5500 5502 5503 5505 5506 5508 5509 5510 5511 5513 5514 5515 5516 5517 5518 5519 5520
5484 5484 5482 5480 5478 5477 5476 5475 5474 5473 5472 5472 5472 5473 5473 5474 5475 5477 5478 5479 5479 5480 5481 5482 5483 5485 5487 5489 5491 5492 5494 5496 5497 5498 5500 5501 5503 5504 5505 5506 5507 5508 5509 5510
5477 5476 5474 5473 5471 5469 5468 5466 5465 5464 5464 5463 5463 5463 5464 5465 5466 5467 5468 5469 5470 5470 5471 5472 5473 5474 5476 5478 5480 5482 5484 5485 5487 5488 5490 5491 5493 5494 5495 5496 5497 5498 5499 5501
5469 5468 5466 5465 5463 5461 5460 5458 5457 5456 5455 5454 5453 5454 5454 5455 5456 5457 5458 5459 5460 5461 5461 5462 5463 5465 5466 5468 5470 5472 5474 5476 5478 5479 5481 5482 5483 5484 5485 5487 5488 5489 5490 5491
5461 5459 5457 5456 5454 5452 5451 5449 5448 5446 5445 5445 5444 5444 5444 5445 5446 5447 5448 5449 5450 5451 5452 5453 5454 5456 5457 5459 5461 5463 5465 5467 5469 5471 5472 5473 5474 5475 5477 5478 5479 5480 5481 5482
5453 5451 5449 5447 5445 5443 5441 5440 5439 5437 5436 5435 5435 5435 5435 5435 5436 5438 5439 5440 5441 5442 5443 5444 5445 5447 5448 5450 5452 5454 5456 5458 5460 5462 5464 5465 5466 5467 5468 5470 5471 5472 5473 5474
5445 5442 5441 5439 5437 5435 5433 5431 5430 5429 5428 5427 5426 5426 5426 5427 5428 5429 5430 5431 5432 5433 5434 5435 5436 5438 5440 5441 5443 5445 5448 5450 5452 5454 5455 5457 5458 5460 5461 5462 5463 5464 5465 5465
5438 5435 5433 5431 5429 5427 5425 5423 5422 5421 5420 5419 5419 5418 5418 5419 5420 5421 5422 5423 5424 5425 5426 5427 5428 5430 5432 5433 5435 5437 5440 5442 5444 5445 5447 5449 5450 5452 5453 5454 5456 5457 5457 5458
5431 5429 5427 5425 5423 5420 5418 5416 5415 5414 5413 5412 5412 5411 5412 5412 5413 5414 5415 5415 5416 5417 5418 5419 5421 5422 5424 5426 5428 5430 5432 5434 5436 5438 5439 5441 5443 5444 5445 5447 5448 5449 5450 5450
5424 5422 5420 5418 5416 5413 5411 5409 5408 5406 5406 5405 5405 5405 5405 5405 5406 5407 5407 5408 5409 5410 5411 5412 5413 5415 5416 5418 5420 5422 5424 5426 5428 5430 5431 5433 5434 5436 5437 5438 5439 5440 5441 5442
5419 5416 5414 5411 5409 5407 5405 5403 5401 5400 5400 5399 5398 5398 5398 5399 5399 5400 5401 5401 5402 5403 5404 5405 5406 5408 5409 5411 5413 5414 5416 5418 5420 5421 5423 5425 5426 5428 5429 5430 5431 5432 5433 5433
5413 5410 5408 5406 5403 5401 5399 5397 5395 5394 5393 5393 5392 5392 5392 5392 5392 5393 5394 5394 5395 5396 5397 5398 5399 5401 5402 5404 5405 5406 5408 5410 5411 5413 5415 5416 5418 5419 5420 5421 5422 5423 5424 5425
5408 5405 5402 5400 5398 5395 5393 5392 5390 5388 5387 5386 5386 5386 5386 5386 5386 5387 5387 5388 5389 5389 5390 5392 5393 5394 5395 5396 5398 5399 5400 5402 5403 5405 5406 5408 5409 5411 5412 5413 5414 5414 5415 5416
5403 5400 5397 5395 5392 5390 5388 5386 5384 5383 5382 5381 5380 5380 5380 5380 5380 5381 5381 5382 5382 5383 5384 5385 5386 5387 5388 5389 5390 5391 5392 5394 5395 5396 5398 5399 5401 5402 5403 5404 5405 5406 5406 5407
5398 5395 5392 5390 5387 5385 5383 5380 5379 5377 5376 5376 5375 5374 5374 5374 5374 5375 5376 5376 5376 5376 5377 5378 5378 5379 5380 5381 5382 5383 5385 5386 5387 5388 5390 5391 5392 5393 5394 5395 5396 5397 5398 5398
5392 5390 5387 5384 5382 5379 5377 5375 5373 5372 5371 5370 5369 5369 5369 5369 5369 5369 5369 5369 5370 5370 5371 5371 5371 5372 5373 5374 5375 5376 5376 5377 5379 5380 5381 5382 5383 5384 5385 5386 5387 5388 5388 5388
5387 5385 5382 5379 5377 5374 5372 5370 5368 5366 5365 5364 5363 5363 5363 5363 5363 5363 5363 5363 5363 5363 5364 5364 5364 5365 5365 5366 5366 5367 5368 5369 5370 5371 5372 5373 5374 5375 5376 5377 5378 5378 5378 5379
5382 5379 5376 5374 5371 5369 5366 5364 5363 5361 5360 5359 5358 5357 5357 5357 5357 5357 5357 5357 5357 5357 5357 5357 5357 5357 5358 5358 5358 5359 5360 5360 5361 5362 5363 5364 5365 5366 5367 5367 5368 5369 5369 5369
5376 5373 5371 5368 5366 5363 5361 5359 5358 5356 5355 5354 5353 5352 5352 5351 5351 5350 5350 5350 5350 5350 5350 5350 5350 5350 5350 5350 5350 5351 5351 5352 5353 5353 5354 5355 5356 5357 5358 5358 5358 5359 5359 5359